Year,Month,Day,Hour,Minute,Value (Times are PST for temperature in C)
2011,08,19,00,00,13.30
2011,08,19,00,01,13.30
2011,08,19,00,02,13.30
2011,08,19,00,03,13.30
2011,08,19,00,04,13.30
2011,08,19,00,05,13.30
2011,08,19,00,06,13.30
2011,08,19,00,07,13.20
2011,08,19,00,08,13.20
2011,08,19,00,09,13.20
2011,08,19,00,10,13.20
2011,08,19,00,11,13.20
2011,08,19,00,12,13.20
2011,08,19,00,13,13.20
2011,08,19,00,14,13.10
2011,08,19,00,15,13.10
2011,08,19,00,16,13.10
2011,08,19,00,17,13.10
2011,08,19,00,18,13.00
2011,08,19,00,19,13.00
2011,08,19,00,20,13.00
2011,08,19,00,21,12.90
2011,08,19,00,22,12.90
2011,08,19,00,23,12.90
2011,08,19,00,24,12.90
2011,08,19,00,25,12.80
2011,08,19,00,26,12.80
2011,08,19,00,27,12.80
2011,08,19,00,28,12.80
2011,08,19,00,29,12.80
2011,08,19,00,30,12.80
2011,08,19,00,31,12.80
2011,08,19,00,32,12.80
2011,08,19,00,33,12.80
2011,08,19,00,34,12.80
2011,08,19,00,35,12.80
2011,08,19,00,36,12.80
2011,08,19,00,37,12.80
2011,08,19,00,38,12.80
2011,08,19,00,39,12.80
2011,08,19,00,40,12.80
2011,08,19,00,41,12.70
2011,08,19,00,42,12.70
2011,08,19,00,43,12.70
2011,08,19,00,44,12.70
2011,08,19,00,45,12.70
2011,08,19,00,46,12.70
2011,08,19,00,47,12.70
2011,08,19,00,48,12.70
2011,08,19,00,49,12.70
2011,08,19,00,50,12.70
2011,08,19,00,51,12.80
2011,08,19,00,52,12.80
2011,08,19,00,53,12.80
2011,08,19,00,54,12.80
2011,08,19,00,55,12.80
2011,08,19,00,56,12.80
2011,08,19,00,57,12.80
2011,08,19,00,58,12.80
2011,08,19,00,59,12.80
2011,08,19,01,00,12.80
2011,08,19,01,01,12.80
2011,08,19,01,02,12.80
2011,08,19,01,03,12.80
2011,08,19,01,04,12.80
2011,08,19,01,05,12.80
2011,08,19,01,06,12.80
2011,08,19,01,07,12.80
2011,08,19,01,08,12.80
2011,08,19,01,09,12.70
2011,08,19,01,10,12.70
2011,08,19,01,11,12.70
2011,08,19,01,12,12.70
2011,08,19,01,13,12.70
2011,08,19,01,14,12.70
2011,08,19,01,15,12.70
2011,08,19,01,16,12.70
2011,08,19,01,17,12.70
2011,08,19,01,18,12.70
2011,08,19,01,19,12.70
2011,08,19,01,20,12.70
2011,08,19,01,21,12.70
2011,08,19,01,22,12.70
2011,08,19,01,23,12.70
2011,08,19,01,24,12.70
2011,08,19,01,25,12.70
2011,08,19,01,26,12.70
2011,08,19,01,27,12.70
2011,08,19,01,28,12.70
2011,08,19,01,29,12.70
2011,08,19,01,30,12.70
2011,08,19,01,31,12.60
2011,08,19,01,32,12.60
2011,08,19,01,33,12.60
2011,08,19,01,34,12.60
2011,08,19,01,35,12.70
2011,08,19,01,36,12.70
2011,08,19,01,37,12.70
2011,08,19,01,38,12.60
2011,08,19,01,39,12.60
2011,08,19,01,40,12.60
2011,08,19,01,41,12.60
2011,08,19,01,42,12.60
2011,08,19,01,43,12.60
2011,08,19,01,44,12.60
2011,08,19,01,45,12.60
2011,08,19,01,46,12.60
2011,08,19,01,47,12.60
2011,08,19,01,48,12.60
2011,08,19,01,49,12.60
2011,08,19,01,50,12.60
2011,08,19,01,51,12.70
2011,08,19,01,52,12.70
2011,08,19,01,53,12.70
2011,08,19,01,54,12.70
2011,08,19,01,55,12.70
2011,08,19,01,56,12.70
2011,08,19,01,57,12.60
2011,08,19,01,58,12.60
2011,08,19,01,59,12.60
2011,08,19,02,00,12.60
2011,08,19,02,01,12.60
2011,08,19,02,02,12.60
2011,08,19,02,03,12.60
2011,08,19,02,04,12.60
2011,08,19,02,05,12.50
2011,08,19,02,06,12.50
2011,08,19,02,07,12.50
2011,08,19,02,08,12.50
2011,08,19,02,09,12.50
2011,08,19,02,10,12.40
2011,08,19,02,11,12.40
2011,08,19,02,12,12.40
2011,08,19,02,13,12.40
2011,08,19,02,14,12.40
2011,08,19,02,15,12.40
2011,08,19,02,16,12.40
2011,08,19,02,17,12.40
2011,08,19,02,18,12.40
2011,08,19,02,19,12.40
2011,08,19,02,20,12.40
2011,08,19,02,21,12.40
2011,08,19,02,22,12.40
2011,08,19,02,23,12.30
2011,08,19,02,24,12.30
2011,08,19,02,25,12.30
2011,08,19,02,26,12.30
2011,08,19,02,27,12.30
2011,08,19,02,28,12.30
2011,08,19,02,29,12.30
2011,08,19,02,30,12.30
2011,08,19,02,31,12.30
2011,08,19,02,32,12.30
2011,08,19,02,33,12.20
2011,08,19,02,34,12.20
2011,08,19,02,35,12.20
2011,08,19,02,36,12.20
2011,08,19,02,37,12.20
2011,08,19,02,38,12.20
2011,08,19,02,39,12.10
2011,08,19,02,40,12.10
2011,08,19,02,41,12.10
2011,08,19,02,42,12.10
2011,08,19,02,43,12.10
2011,08,19,02,44,12.10
2011,08,19,02,45,12.10
2011,08,19,02,46,12.00
2011,08,19,02,47,12.00
2011,08,19,02,48,12.00
2011,08,19,02,49,12.00
2011,08,19,02,50,12.00
2011,08,19,02,51,12.00
2011,08,19,02,52,12.00
2011,08,19,02,53,12.00
2011,08,19,02,54,12.00
2011,08,19,02,55,11.90
2011,08,19,02,56,11.90
2011,08,19,02,57,11.90
2011,08,19,02,58,11.90
2011,08,19,02,59,11.90
2011,08,19,03,00,11.90
2011,08,19,03,01,11.90
2011,08,19,03,02,11.90
2011,08,19,03,03,11.80
2011,08,19,03,04,11.80
2011,08,19,03,05,11.80
2011,08,19,03,06,11.80
2011,08,19,03,07,11.80
2011,08,19,03,08,11.80
2011,08,19,03,09,11.80
2011,08,19,03,10,11.70
2011,08,19,03,11,11.70
2011,08,19,03,12,11.70
2011,08,19,03,13,11.70
2011,08,19,03,14,11.70
2011,08,19,03,15,11.70
2011,08,19,03,16,11.70
2011,08,19,03,17,11.70
2011,08,19,03,18,11.70
2011,08,19,03,19,11.70
2011,08,19,03,20,11.70
2011,08,19,03,21,11.70
2011,08,19,03,22,11.70
2011,08,19,03,23,11.70
2011,08,19,03,24,11.70
2011,08,19,03,25,11.70
2011,08,19,03,26,11.70
2011,08,19,03,27,11.70
2011,08,19,03,28,11.70
2011,08,19,03,29,11.70
2011,08,19,03,30,11.70
2011,08,19,03,31,11.70
2011,08,19,03,32,11.70
2011,08,19,03,33,11.70
2011,08,19,03,34,11.70
2011,08,19,03,35,11.70
2011,08,19,03,36,11.70
2011,08,19,03,37,11.70
2011,08,19,03,38,11.60
2011,08,19,03,39,11.60
2011,08,19,03,40,11.60
2011,08,19,03,41,11.60
2011,08,19,03,42,11.60
2011,08,19,03,43,11.60
2011,08,19,03,44,11.60
2011,08,19,03,45,11.60
2011,08,19,03,46,11.50
2011,08,19,03,47,11.50
2011,08,19,03,48,11.50
2011,08,19,03,49,11.50
2011,08,19,03,50,11.50
2011,08,19,03,51,11.40
2011,08,19,03,52,11.40
2011,08,19,03,53,11.40
2011,08,19,03,54,11.40
2011,08,19,03,55,11.40
2011,08,19,03,56,11.40
2011,08,19,03,57,11.40
2011,08,19,03,58,11.40
2011,08,19,03,59,11.40
2011,08,19,04,00,11.40
2011,08,19,04,01,11.40
2011,08,19,04,02,11.40
2011,08,19,04,03,11.40
2011,08,19,04,04,11.40
2011,08,19,04,05,11.40
2011,08,19,04,06,11.40
2011,08,19,04,07,11.40
2011,08,19,04,08,11.40
2011,08,19,04,09,11.40
2011,08,19,04,10,11.40
2011,08,19,04,11,11.30
2011,08,19,04,12,11.30
2011,08,19,04,13,11.30
2011,08,19,04,14,11.30
2011,08,19,04,15,11.30
2011,08,19,04,16,11.30
2011,08,19,04,17,11.30
2011,08,19,04,18,11.30
2011,08,19,04,19,11.30
2011,08,19,04,20,11.30
2011,08,19,04,21,11.30
2011,08,19,04,22,11.30
2011,08,19,04,23,11.30
2011,08,19,04,24,11.30
2011,08,19,04,25,11.20
2011,08,19,04,26,11.20
2011,08,19,04,27,11.20
2011,08,19,04,28,11.20
2011,08,19,04,29,11.20
2011,08,19,04,30,11.20
2011,08,19,04,31,11.10
2011,08,19,04,32,11.10
2011,08,19,04,33,11.10
2011,08,19,04,34,11.10
2011,08,19,04,35,11.10
2011,08,19,04,36,11.10
2011,08,19,04,37,11.10
2011,08,19,04,38,11.10
2011,08,19,04,39,11.00
2011,08,19,04,40,11.00
2011,08,19,04,41,11.00
2011,08,19,04,42,11.00
2011,08,19,04,43,11.00
2011,08,19,04,44,11.00
2011,08,19,04,45,11.00
2011,08,19,04,46,10.90
2011,08,19,04,47,10.90
2011,08,19,04,48,10.90
2011,08,19,04,49,10.90
2011,08,19,04,50,10.90
2011,08,19,04,51,10.90
2011,08,19,04,52,10.90
2011,08,19,04,53,10.90
2011,08,19,04,54,10.90
2011,08,19,04,55,10.90
2011,08,19,04,56,10.90
2011,08,19,04,57,10.90
2011,08,19,04,58,10.90
2011,08,19,04,59,10.90
2011,08,19,05,00,10.90
2011,08,19,05,01,10.90
2011,08,19,05,02,10.90
2011,08,19,05,03,10.90
2011,08,19,05,04,10.90
2011,08,19,05,05,10.90
2011,08,19,05,06,10.90
2011,08,19,05,07,10.80
2011,08,19,05,08,10.90
2011,08,19,05,09,10.90
2011,08,19,05,10,10.90
2011,08,19,05,11,10.90
2011,08,19,05,12,10.90
2011,08,19,05,13,10.90
2011,08,19,05,14,10.90
2011,08,19,05,15,11.00
2011,08,19,05,16,11.00
2011,08,19,05,17,11.00
2011,08,19,05,18,11.00
2011,08,19,05,19,11.00
2011,08,19,05,20,11.00
2011,08,19,05,21,11.00
2011,08,19,05,22,11.00
2011,08,19,05,23,11.00
2011,08,19,05,24,10.90
2011,08,19,05,25,10.90
2011,08,19,05,26,10.90
2011,08,19,05,27,10.90
2011,08,19,05,28,10.90
2011,08,19,05,29,10.90
2011,08,19,05,30,10.90
2011,08,19,05,31,10.90
2011,08,19,05,32,10.90
2011,08,19,05,33,10.90
2011,08,19,05,34,10.90
2011,08,19,05,35,10.90
2011,08,19,05,36,10.90
2011,08,19,05,37,10.90
2011,08,19,05,38,10.90
2011,08,19,05,39,10.90
2011,08,19,05,40,10.90
2011,08,19,05,41,10.80
2011,08,19,05,42,10.80
2011,08,19,05,43,10.80
2011,08,19,05,44,10.80
2011,08,19,05,45,10.80
2011,08,19,05,46,10.80
2011,08,19,05,47,10.80
2011,08,19,05,48,10.80
2011,08,19,05,49,10.80
2011,08,19,05,50,10.80
2011,08,19,05,51,10.80
2011,08,19,05,52,10.80
2011,08,19,05,53,10.80
2011,08,19,05,54,10.80
2011,08,19,05,55,10.80
2011,08,19,05,56,10.80
2011,08,19,05,57,10.80
2011,08,19,05,58,10.70
2011,08,19,05,59,10.70
2011,08,19,06,00,10.70
2011,08,19,06,01,10.70
2011,08,19,06,02,10.70
2011,08,19,06,03,10.70
2011,08,19,06,04,10.70
2011,08,19,06,05,10.70
2011,08,19,06,06,10.70
2011,08,19,06,07,10.70
2011,08,19,06,08,10.70
2011,08,19,06,09,10.70
2011,08,19,06,10,10.70
2011,08,19,06,11,10.70
2011,08,19,06,12,10.70
2011,08,19,06,13,10.60
2011,08,19,06,14,10.60
2011,08,19,06,15,10.60
2011,08,19,06,16,10.60
2011,08,19,06,17,10.60
2011,08,19,06,18,10.60
2011,08,19,06,19,10.60
2011,08,19,06,20,10.60
2011,08,19,06,21,10.60
2011,08,19,06,22,10.60
2011,08,19,06,23,10.60
2011,08,19,06,24,10.60
2011,08,19,06,25,10.60
2011,08,19,06,26,10.60
2011,08,19,06,27,10.60
2011,08,19,06,28,10.50
2011,08,19,06,29,10.50
2011,08,19,06,30,10.50
2011,08,19,06,31,10.50
2011,08,19,06,32,10.50
2011,08,19,06,33,10.50
2011,08,19,06,34,10.40
2011,08,19,06,35,10.40
2011,08,19,06,36,10.40
2011,08,19,06,37,10.40
2011,08,19,06,38,10.50
2011,08,19,06,39,10.50
2011,08,19,06,40,10.50
2011,08,19,06,41,10.60
2011,08,19,06,42,10.60
2011,08,19,06,43,10.60
2011,08,19,06,44,10.60
2011,08,19,06,45,10.70
2011,08,19,06,46,10.70
2011,08,19,06,47,10.70
2011,08,19,06,48,10.70
2011,08,19,06,49,10.70
2011,08,19,06,50,10.70
2011,08,19,06,51,10.80
2011,08,19,06,52,10.80
2011,08,19,06,53,10.80
2011,08,19,06,54,10.80
2011,08,19,06,55,10.80
2011,08,19,06,56,10.80
2011,08,19,06,57,10.80
2011,08,19,06,58,10.90
2011,08,19,06,59,10.90
2011,08,19,07,00,10.90
2011,08,19,07,01,10.90
2011,08,19,07,02,11.00
2011,08,19,07,03,11.00
2011,08,19,07,04,11.10
2011,08,19,07,05,11.10
2011,08,19,07,06,11.10
2011,08,19,07,07,11.20
2011,08,19,07,08,11.20
2011,08,19,07,09,11.30
2011,08,19,07,10,11.30
2011,08,19,07,11,11.30
2011,08,19,07,12,11.30
2011,08,19,07,13,11.40
2011,08,19,07,14,11.40
2011,08,19,07,15,11.40
2011,08,19,07,16,11.40
2011,08,19,07,17,11.50
2011,08,19,07,18,11.50
2011,08,19,07,19,11.60
2011,08,19,07,20,11.60
2011,08,19,07,21,11.60
2011,08,19,07,22,11.70
2011,08,19,07,23,11.70
2011,08,19,07,24,11.80
2011,08,19,07,25,11.80
2011,08,19,07,26,11.90
2011,08,19,07,27,12.00
2011,08,19,07,28,12.10
2011,08,19,07,29,12.20
2011,08,19,07,30,12.20
2011,08,19,07,31,12.30
2011,08,19,07,32,12.40
2011,08,19,07,33,12.50
2011,08,19,07,34,12.60
2011,08,19,07,35,12.70
2011,08,19,07,36,12.80
2011,08,19,07,37,12.80
2011,08,19,07,38,12.90
2011,08,19,07,39,12.90
2011,08,19,07,40,12.90
2011,08,19,07,41,13.00
2011,08,19,07,42,13.00
2011,08,19,07,43,13.10
2011,08,19,07,44,13.10
2011,08,19,07,45,13.20
2011,08,19,07,46,13.20
2011,08,19,07,47,13.30
2011,08,19,07,48,13.40
2011,08,19,07,49,13.40
2011,08,19,07,50,13.50
2011,08,19,07,51,13.50
2011,08,19,07,52,13.60
2011,08,19,07,53,13.70
2011,08,19,07,54,13.70
2011,08,19,07,55,13.80
2011,08,19,07,56,13.90
2011,08,19,07,57,13.90
2011,08,19,07,58,14.00
2011,08,19,07,59,14.10
2011,08,19,08,00,14.20
2011,08,19,08,01,14.20
2011,08,19,08,02,14.30
2011,08,19,08,03,14.40
2011,08,19,08,04,14.40
2011,08,19,08,05,14.50
2011,08,19,08,06,14.60
2011,08,19,08,07,14.70
2011,08,19,08,08,14.80
2011,08,19,08,09,14.90
2011,08,19,08,10,15.00
2011,08,19,08,11,15.00
2011,08,19,08,12,15.00
2011,08,19,08,13,15.20
2011,08,19,08,14,15.30
2011,08,19,08,15,15.40
2011,08,19,08,16,15.50
2011,08,19,08,17,15.60
2011,08,19,08,18,15.70
2011,08,19,08,19,15.80
2011,08,19,08,20,15.90
2011,08,19,08,21,16.00
2011,08,19,08,22,16.00
2011,08,19,08,23,16.00
2011,08,19,08,24,16.10
2011,08,19,08,25,16.10
2011,08,19,08,26,16.10
2011,08,19,08,27,16.20
2011,08,19,08,28,16.20
2011,08,19,08,29,16.30
2011,08,19,08,30,16.40
2011,08,19,08,31,16.50
2011,08,19,08,32,16.50
2011,08,19,08,33,16.60
2011,08,19,08,34,16.70
2011,08,19,08,35,16.80
2011,08,19,08,36,16.80
2011,08,19,08,37,16.90
2011,08,19,08,38,16.90
2011,08,19,08,39,17.10
2011,08,19,08,40,17.20
2011,08,19,08,41,17.30
2011,08,19,08,42,17.40
2011,08,19,08,43,17.50
2011,08,19,08,44,17.60
2011,08,19,08,45,17.60
2011,08,19,08,46,17.60
2011,08,19,08,47,17.70
2011,08,19,08,48,17.70
2011,08,19,08,49,17.70
2011,08,19,08,50,17.70
2011,08,19,08,51,17.70
2011,08,19,08,52,17.70
2011,08,19,08,53,17.70
2011,08,19,08,54,17.80
2011,08,19,08,55,17.80
2011,08,19,08,56,17.80
2011,08,19,08,57,17.80
2011,08,19,08,58,17.80
2011,08,19,08,59,17.90
2011,08,19,09,00,17.90
2011,08,19,09,01,18.00
2011,08,19,09,02,18.00
2011,08,19,09,03,17.90
2011,08,19,09,04,17.90
2011,08,19,09,05,18.00
2011,08,19,09,06,18.10
2011,08,19,09,07,18.10
2011,08,19,09,08,18.10
2011,08,19,09,09,18.20
2011,08,19,09,10,18.30
2011,08,19,09,11,18.30
2011,08,19,09,12,18.30
2011,08,19,09,13,18.30
2011,08,19,09,14,18.40
2011,08,19,09,15,18.40
2011,08,19,09,16,18.40
2011,08,19,09,17,18.50
2011,08,19,09,18,18.50
2011,08,19,09,19,18.60
2011,08,19,09,20,18.60
2011,08,19,09,21,18.70
2011,08,19,09,22,18.70
2011,08,19,09,23,18.80
2011,08,19,09,24,18.80
2011,08,19,09,25,18.70
2011,08,19,09,26,18.80
2011,08,19,09,27,18.80
2011,08,19,09,28,18.80
2011,08,19,09,29,18.90
2011,08,19,09,30,19.00
2011,08,19,09,31,19.00
2011,08,19,09,32,19.10
2011,08,19,09,33,19.20
2011,08,19,09,34,19.20
2011,08,19,09,35,19.30
2011,08,19,09,36,19.30
2011,08,19,09,37,19.40
2011,08,19,09,38,19.50
2011,08,19,09,39,19.60
2011,08,19,09,40,19.60
2011,08,19,09,41,19.70
2011,08,19,09,42,19.70
2011,08,19,09,43,19.60
2011,08,19,09,44,19.50
2011,08,19,09,45,19.40
2011,08,19,09,46,19.40
2011,08,19,09,47,19.40
2011,08,19,09,48,19.40
2011,08,19,09,49,19.40
2011,08,19,09,50,19.40
2011,08,19,09,51,19.40
2011,08,19,09,52,19.50
2011,08,19,09,53,19.50
2011,08,19,09,54,19.40
2011,08,19,09,55,19.40
2011,08,19,09,56,19.40
2011,08,19,09,57,19.50
2011,08,19,09,58,19.50
2011,08,19,09,59,19.50
2011,08,19,10,00,19.40
2011,08,19,10,01,19.40
2011,08,19,10,02,19.40
2011,08,19,10,03,19.30
2011,08,19,10,04,19.30
2011,08,19,10,05,19.30
2011,08,19,10,06,19.40
2011,08,19,10,07,19.40
2011,08,19,10,08,19.50
2011,08,19,10,09,19.50
2011,08,19,10,10,19.50
2011,08,19,10,11,19.50
2011,08,19,10,12,19.60
2011,08,19,10,13,19.60
2011,08,19,10,14,19.80
2011,08,19,10,15,19.90
2011,08,19,10,16,20.00
2011,08,19,10,17,20.20
2011,08,19,10,18,20.30
2011,08,19,10,19,20.40
2011,08,19,10,20,20.40
2011,08,19,10,21,20.40
2011,08,19,10,22,20.40
2011,08,19,10,23,20.30
2011,08,19,10,24,20.30
2011,08,19,10,25,20.40
2011,08,19,10,26,20.50
2011,08,19,10,27,20.50
2011,08,19,10,28,20.50
2011,08,19,10,29,20.50
2011,08,19,10,30,20.60
2011,08,19,10,31,20.60
2011,08,19,10,32,20.80
2011,08,19,10,33,20.90
2011,08,19,10,34,21.00
2011,08,19,10,35,21.10
2011,08,19,10,36,21.10
2011,08,19,10,37,21.20
2011,08,19,10,38,21.20
2011,08,19,10,39,21.20
2011,08,19,10,40,21.10
2011,08,19,10,41,21.00
2011,08,19,10,42,21.00
2011,08,19,10,43,21.00
2011,08,19,10,44,21.00
2011,08,19,10,45,21.10
2011,08,19,10,46,21.20
2011,08,19,10,47,21.20
2011,08,19,10,48,21.30
2011,08,19,10,49,21.30
2011,08,19,10,50,21.40
2011,08,19,10,51,21.40
2011,08,19,10,52,21.40
2011,08,19,10,53,21.40
2011,08,19,10,54,21.40
2011,08,19,10,55,21.40
2011,08,19,10,56,21.30
2011,08,19,10,57,21.30
2011,08,19,10,58,21.40
2011,08,19,10,59,21.40
2011,08,19,11,00,21.50
2011,08,19,11,03,21.70
2011,08,19,11,04,21.70
2011,08,19,11,05,21.80
2011,08,19,11,06,21.80
2011,08,19,11,07,21.80
2011,08,19,11,08,21.70
2011,08,19,11,09,21.60
2011,08,19,11,10,21.50
2011,08,19,11,11,21.40
2011,08,19,11,12,21.30
2011,08,19,11,13,21.30
2011,08,19,11,14,21.30
2011,08,19,11,15,21.40
2011,08,19,11,16,21.50
2011,08,19,11,17,21.60
2011,08,19,11,18,21.70
2011,08,19,11,19,21.60
2011,08,19,11,20,21.50
2011,08,19,11,21,21.50
2011,08,19,11,22,21.40
2011,08,19,11,23,21.30
2011,08,19,11,24,21.20
2011,08,19,11,25,21.00
2011,08,19,11,26,20.90
2011,08,19,11,27,20.80
2011,08,19,11,28,20.80
2011,08,19,11,29,20.70
2011,08,19,11,30,20.50
2011,08,19,11,31,20.50
2011,08,19,11,32,20.60
2011,08,19,11,33,20.70
2011,08,19,11,34,20.80
2011,08,19,11,35,20.90
2011,08,19,11,36,20.90
2011,08,19,11,37,20.90
2011,08,19,11,38,21.00
2011,08,19,11,39,21.10
2011,08,19,11,40,21.10
2011,08,19,11,41,21.10
2011,08,19,11,42,21.00
2011,08,19,11,43,20.90
2011,08,19,11,44,20.90
2011,08,19,11,45,21.00
2011,08,19,11,46,21.10
2011,08,19,11,47,21.10
2011,08,19,11,48,21.20
2011,08,19,11,49,21.30
2011,08,19,11,50,21.30
2011,08,19,11,51,21.30
2011,08,19,11,52,21.20
2011,08,19,11,53,21.10
2011,08,19,11,54,21.00
2011,08,19,11,55,20.80
2011,08,19,11,56,20.70
2011,08,19,11,57,20.60
2011,08,19,11,58,20.40
2011,08,19,11,59,20.40
2011,08,19,12,00,20.40
2011,08,19,12,01,20.40
2011,08,19,12,02,20.40
2011,08,19,12,03,20.30
2011,08,19,12,04,20.40
2011,08,19,12,05,20.40
2011,08,19,12,06,20.70
2011,08,19,12,07,20.80
2011,08,19,12,08,20.80
2011,08,19,12,09,20.80
2011,08,19,12,10,20.80
2011,08,19,12,11,20.80
2011,08,19,12,12,20.80
2011,08,19,12,13,20.80
2011,08,19,12,14,20.80
2011,08,19,12,15,20.80
2011,08,19,12,16,20.80
2011,08,19,12,17,20.60
2011,08,19,12,18,20.60
2011,08,19,12,19,20.60
2011,08,19,12,20,20.70
2011,08,19,12,21,20.70
2011,08,19,12,22,20.70
2011,08,19,12,23,20.70
2011,08,19,12,24,20.80
2011,08,19,12,25,20.80
2011,08,19,12,26,20.80
2011,08,19,12,27,20.70
2011,08,19,12,28,20.60
2011,08,19,12,29,20.60
2011,08,19,12,30,20.70
2011,08,19,12,31,20.70
2011,08,19,12,32,20.70
2011,08,19,12,33,20.70
2011,08,19,12,34,20.70
2011,08,19,12,35,20.80
2011,08,19,12,36,20.90
2011,08,19,12,37,21.00
2011,08,19,12,38,21.10
2011,08,19,12,39,21.20
2011,08,19,12,40,21.20
2011,08,19,12,41,21.10
2011,08,19,12,42,21.20
2011,08,19,12,43,21.30
2011,08,19,12,44,21.40
2011,08,19,12,45,21.50
2011,08,19,12,46,21.60
2011,08,19,12,47,21.60
2011,08,19,12,48,21.50
2011,08,19,12,49,21.40
2011,08,19,12,50,21.20
2011,08,19,12,51,21.10
2011,08,19,12,52,21.00
2011,08,19,12,53,21.10
2011,08,19,12,54,21.20
2011,08,19,12,55,21.30
2011,08,19,12,56,21.40
2011,08,19,12,57,21.30
2011,08,19,12,58,21.30
2011,08,19,12,59,21.30
2011,08,19,13,00,21.30
2011,08,19,13,01,21.40
2011,08,19,13,02,21.40
2011,08,19,13,03,21.50
2011,08,19,13,04,21.50
2011,08,19,13,05,21.60
2011,08,19,13,06,21.60
2011,08,19,13,07,21.60
2011,08,19,13,08,21.50
2011,08,19,13,09,21.50
2011,08,19,13,10,21.60
2011,08,19,13,11,21.70
2011,08,19,13,12,21.90
2011,08,19,13,13,22.00
2011,08,19,13,14,22.00
2011,08,19,13,15,22.00
2011,08,19,13,16,22.00
2011,08,19,13,17,22.10
2011,08,19,13,18,22.10
2011,08,19,13,19,22.00
2011,08,19,13,20,22.00
2011,08,19,13,21,22.10
2011,08,19,13,22,22.20
2011,08,19,13,23,22.20
2011,08,19,13,24,22.10
2011,08,19,13,25,22.00
2011,08,19,13,26,22.00
2011,08,19,13,27,22.00
2011,08,19,13,28,22.10
2011,08,19,13,29,22.00
2011,08,19,13,30,22.10
2011,08,19,13,31,22.10
2011,08,19,13,32,22.20
2011,08,19,13,33,22.20
2011,08,19,13,34,22.20
2011,08,19,13,35,22.20
2011,08,19,13,36,22.20
2011,08,19,13,37,22.20
2011,08,19,13,38,22.20
2011,08,19,13,39,22.20
2011,08,19,13,40,22.20
2011,08,19,13,41,22.20
2011,08,19,13,42,22.30
2011,08,19,13,43,22.40
2011,08,19,13,44,22.40
2011,08,19,13,45,22.40
2011,08,19,13,46,22.40
2011,08,19,13,47,22.40
2011,08,19,13,48,22.40
2011,08,19,13,49,22.50
2011,08,19,13,50,22.50
2011,08,19,13,51,22.60
2011,08,19,13,52,22.60
2011,08,19,13,53,22.70
2011,08,19,13,54,22.70
2011,08,19,13,55,22.70
2011,08,19,13,56,22.80
2011,08,19,13,57,22.80
2011,08,19,13,58,22.80
2011,08,19,13,59,22.80
2011,08,19,14,00,22.80
2011,08,19,14,01,22.80
2011,08,19,14,02,22.90
2011,08,19,14,03,22.90
2011,08,19,14,04,23.00
2011,08,19,14,05,23.10
2011,08,19,14,06,23.30
2011,08,19,14,07,23.30
2011,08,19,14,08,23.20
2011,08,19,14,09,23.20
2011,08,19,14,10,23.20
2011,08,19,14,11,23.20
2011,08,19,14,12,23.20
2011,08,19,14,13,23.20
2011,08,19,14,14,23.10
2011,08,19,14,15,23.10
2011,08,19,14,16,23.10
2011,08,19,14,17,23.20
2011,08,19,14,18,23.20
2011,08,19,14,19,23.20
2011,08,19,14,20,23.10
2011,08,19,14,21,22.90
2011,08,19,14,22,22.80
2011,08,19,14,23,22.70
2011,08,19,14,24,22.70
2011,08,19,14,25,22.60
2011,08,19,14,26,22.60
2011,08,19,14,27,22.50
2011,08,19,14,28,22.50
2011,08,19,14,29,22.60
2011,08,19,14,30,22.80
2011,08,19,14,31,22.90
2011,08,19,14,32,23.00
2011,08,19,14,33,23.10
2011,08,19,14,34,23.20
2011,08,19,14,35,23.30
2011,08,19,14,36,23.30
2011,08,19,14,37,23.40
2011,08,19,14,38,23.50
2011,08,19,14,39,23.60
2011,08,19,14,40,23.70
2011,08,19,14,41,23.70
2011,08,19,14,42,23.80
2011,08,19,14,43,23.70
2011,08,19,14,44,23.80
2011,08,19,14,45,23.70
2011,08,19,14,46,23.70
2011,08,19,14,47,23.70
2011,08,19,14,48,23.60
2011,08,19,14,49,23.60
2011,08,19,14,50,23.60
2011,08,19,14,51,23.60
2011,08,19,14,52,23.60
2011,08,19,14,53,23.70
2011,08,19,14,54,23.80
2011,08,19,14,55,23.80
2011,08,19,14,56,23.90
2011,08,19,14,57,23.90
2011,08,19,14,58,23.90
2011,08,19,14,59,23.90
2011,08,19,15,00,23.80
2011,08,19,15,01,23.60
2011,08,19,15,02,23.40
2011,08,19,15,03,23.30
2011,08,19,15,04,23.20
2011,08,19,15,05,23.20
2011,08,19,15,06,23.20
2011,08,19,15,07,23.30
2011,08,19,15,08,23.40
2011,08,19,15,09,23.40
2011,08,19,15,10,23.40
2011,08,19,15,11,23.40
2011,08,19,15,12,23.50
2011,08,19,15,13,23.50
2011,08,19,15,14,23.60
2011,08,19,15,15,23.60
2011,08,19,15,16,23.50
2011,08,19,15,17,23.40
2011,08,19,15,18,23.40
2011,08,19,15,19,23.50
2011,08,19,15,20,23.50
2011,08,19,15,21,23.60
2011,08,19,15,22,23.70
2011,08,19,15,23,23.80
2011,08,19,15,24,23.90
2011,08,19,15,25,23.90
2011,08,19,15,26,24.00
2011,08,19,15,27,24.10
2011,08,19,15,28,24.20
2011,08,19,15,29,24.20
2011,08,19,15,30,24.20
2011,08,19,15,31,24.20
2011,08,19,15,32,24.10
2011,08,19,15,33,24.10
2011,08,19,15,34,24.20
2011,08,19,15,35,24.30
2011,08,19,15,36,24.20
2011,08,19,15,37,24.20
2011,08,19,15,38,24.10
2011,08,19,15,39,24.00
2011,08,19,15,40,23.90
2011,08,19,15,41,23.80
2011,08,19,15,42,23.80
2011,08,19,15,43,23.90
2011,08,19,15,44,24.00
2011,08,19,15,45,24.10
2011,08,19,15,46,24.20
2011,08,19,15,47,24.30
2011,08,19,15,48,24.40
2011,08,19,15,49,24.40
2011,08,19,15,50,24.40
2011,08,19,15,51,24.40
2011,08,19,15,52,24.40
2011,08,19,15,53,24.40
2011,08,19,15,54,24.30
2011,08,19,15,55,24.20
2011,08,19,15,56,24.20
2011,08,19,15,57,24.10
2011,08,19,15,58,24.10
2011,08,19,15,59,24.00
2011,08,19,16,00,23.90
2011,08,19,16,01,23.90
2011,08,19,16,02,23.90
2011,08,19,16,03,23.90
2011,08,19,16,04,23.90
2011,08,19,16,05,23.90
2011,08,19,16,06,24.00
2011,08,19,16,07,24.00
2011,08,19,16,08,24.00
2011,08,19,16,09,23.90
2011,08,19,16,10,24.00
2011,08,19,16,11,24.00
2011,08,19,16,12,24.10
2011,08,19,16,13,24.10
2011,08,19,16,14,24.20
2011,08,19,16,15,24.20
2011,08,19,16,16,24.20
2011,08,19,16,17,24.20
2011,08,19,16,18,24.20
2011,08,19,16,19,24.10
2011,08,19,16,20,24.00
2011,08,19,16,21,24.00
2011,08,19,16,22,23.90
2011,08,19,16,23,23.90
2011,08,19,16,24,23.80
2011,08,19,16,25,23.80
2011,08,19,16,26,23.80
2011,08,19,16,27,23.90
2011,08,19,16,28,24.00
2011,08,19,16,29,24.10
2011,08,19,16,30,24.00
2011,08,19,16,31,24.10
2011,08,19,16,32,24.10
2011,08,19,16,33,24.10
2011,08,19,16,34,24.00
2011,08,19,16,35,24.00
2011,08,19,16,36,23.90
2011,08,19,16,37,23.80
2011,08,19,16,38,23.80
2011,08,19,16,39,23.80
2011,08,19,16,40,23.80
2011,08,19,16,41,23.80
2011,08,19,16,42,23.80
2011,08,19,16,43,23.90
2011,08,19,16,44,23.90
2011,08,19,16,45,23.90
2011,08,19,16,46,24.00
2011,08,19,16,47,24.00
2011,08,19,16,48,23.90
2011,08,19,16,49,24.00
2011,08,19,16,50,24.00
2011,08,19,16,51,24.00
2011,08,19,16,52,24.10
2011,08,19,16,53,24.00
2011,08,19,16,54,23.90
2011,08,19,16,55,23.80
2011,08,19,16,56,23.80
2011,08,19,16,57,23.90
2011,08,19,16,58,23.90
2011,08,19,16,59,24.00
2011,08,19,17,00,24.10
2011,08,19,17,01,24.10
2011,08,19,17,02,24.00
2011,08,19,17,03,24.00
2011,08,19,17,04,23.90
2011,08,19,17,05,23.90
2011,08,19,17,06,23.90
2011,08,19,17,07,23.90
2011,08,19,17,08,23.90
2011,08,19,17,09,23.80
2011,08,19,17,10,23.80
2011,08,19,17,11,23.80
2011,08,19,17,12,23.80
2011,08,19,17,13,23.70
2011,08,19,17,14,23.70
2011,08,19,17,15,23.70
2011,08,19,17,16,23.70
2011,08,19,17,17,23.70
2011,08,19,17,18,23.70
2011,08,19,17,19,23.70
2011,08,19,17,20,23.80
2011,08,19,17,21,23.80